Lapse_Rate
-0.4 0.5 1.8 5.3 6.5 6.5 6.5 6.5 6.5 6.5 6.5 7.3 7.4 7.0 6.6 7.1 6.5 6.5 5.1 4.6 4.9 4.5 4.3 3.8 4.3 4.1 3.8 3.6 3.5 3.5 3.9 4.6 4.7 4.6 4.6 4.6 4.7 4.7 4.7 4.4 4.5 4.8 5.0 5.3 5.2 5.1 4.9 4.6 4.4
0.7 2.3 4.3 5.4 6.5 6.5 6.5 6.5 6.5 6.5 7.0 7.4 6.5 7.3 6.9 6.5 7.7 5.9 5.1 4.0 4.5 4.1 4.2 3.8 3.6 3.6 3.4 2.9 2.8 3.0 3.3 3.6 3.9 4.3 4.6 5.4 6.2 6.0 5.8 4.3 4.4 4.5 4.8 5.1 5.4 5.2 4.8 4.3 4.1
1.8 2.6 6.8 6.5 6.5 6.5 6.5 6.5 6.5 6.9 7.3 7.2 7.0 6.7 7.3 7.1 7.0 6.2 4.6 4.0 3.9 4.1 4.1 3.6 3.4 3.4 3.3 2.8 2.7 3.0 3.0 3.4 3.6 4.2 4.7 4.7 5.0 5.1 3.9 3.9 3.8 4.1 4.4 4.7 5.2 5.0 4.5 4.1 3.9
4.3 5.7 6.2 6.5 6.5 6.5 6.5 6.5 6.7 6.7 7.2 6.5 7.3 6.6 6.9 6.9 6.8 6.0 4.4 4.2 4.0 3.4 2.9 2.8 3.8 3.7 3.3 2.5 2.6 2.7 2.9 3.1 3.2 3.6 3.9 3.8 3.8 3.7 3.7 3.5 3.6 3.7 3.5 3.5 3.5 3.4 3.5 3.7 3.7
3.0 5.3 6.5 6.5 6.5 6.5 6.5 6.8 7.1 6.5 6.8 7.1 7.3 6.7 7.2 6.6 6.8 6.1 4.8 4.3 3.1 2.3 2.3 3.8 4.0 3.7 2.8 2.3 2.3 2.4 2.5 2.8 2.9 3.1 3.3 3.3 3.3 3.4 3.2 3.0 2.9 2.7 2.6 2.6 2.4 2.4 2.8 2.9 3.4
6.4 6.4 6.5 6.5 6.5 6.5 6.5 7.1 7.0 6.8 7.0 7.1 6.8 7.1 7.3 6.8 6.6 6.0 4.8 3.4 2.7 1.9 1.5 3.4 3.5 2.9 2.3 1.9 1.7 1.9 1.8 1.9 2.0 2.3 2.6 2.7 2.8 3.0 2.7 2.4 2.3 2.2 2.1 1.9 1.8 1.7 1.9 2.1 2.2
6.5 6.5 6.5 6.5 6.5 6.5 6.5 7.3 6.7 6.7 6.8 6.9 7.2 6.5 7.2 7.5 6.6 5.8 4.9 2.8 1.6 1.6 1.6 2.6 2.5 2.5 2.1 1.3 1.0 1.1 1.1 1.0 0.8 0.6 0.6 0.7 0.9 0.3 0.4 1.0 0.8 1.0 1.0 1.0 0.9 0.7 1.0 1.4 1.4
4.8 6.5 6.5 6.5 6.5 6.5 6.7 7.0 6.9 7.1 6.8 6.6 6.4 6.6 6.8 8.1 6.0 5.4 4.4 2.5 1.6 1.9 2.0 2.7 2.4 2.1 1.7 1.4 0.5 -0.1 -0.6 -0.8 -0.5 -0.7 -1.1 -1.4 -1.1 -1.1 -0.7 -0.2 -0.5 -0.6 -0.5 -0.4 -0.4 -0.6 -0.6 -0.5 -0.0
3.9 6.5 6.5 6.5 6.5 6.5 7.0 6.6 6.1 5.9 7.0 6.7 6.4 6.6 6.1 4.4 5.2 4.7 3.5 3.0 2.9 2.7 2.7 2.7 2.9 2.3 1.7 1.0 -0.2 -0.7 -1.3 -1.7 -1.6 -1.4 -1.7 -1.2 -0.9 -1.0 -0.7 -1.7 -1.4 -1.5 -1.5 -1.5 -1.7 -1.7 -1.9 -1.6 -0.4
6.7 6.5 6.5 6.5 6.6 6.5 6.8 6.8 7.1 7.0 7.0 7.1 6.3 4.3 4.4 4.6 5.4 5.0 4.8 4.4 3.7 3.3 2.9 2.9 2.4 2.0 1.6 1.3 0.4 -0.1 -0.6 -1.1 -1.4 -1.8 -1.8 -1.4 -1.5 -1.5 -1.7 -2.0 -2.5 -2.1 -2.5 -2.2 -2.3 -2.4 -2.0 -0.6 0.5
6.8 6.5 6.5 6.7 6.9 6.7 6.8 6.8 7.0 6.9 6.5 7.1 7.0 4.5 5.0 5.4 5.7 5.5 5.2 5.0 3.7 2.7 2.7 2.4 1.2 1.0 1.3 0.9 0.9 0.5 -0.0 -0.1 -0.4 -1.2 -1.4 -1.7 -1.3 -1.6 -1.4 -1.1 -1.2 -1.3 -1.8 -1.0 -0.9 -0.6 -0.5 -1.2 -0.6
6.5 6.7 6.8 6.9 6.1 6.8 6.6 6.2 6.8 7.0 6.7 4.0 4.7 3.5 5.0 5.7 5.5 5.5 4.4 3.6 3.3 2.9 2.2 1.8 1.0 1.0 1.1 1.5 1.3 1.2 1.2 0.3 -0.4 -1.4 -1.4 -0.9 -0.7 -1.1 -1.2 -1.1 -1.2 -1.2 -1.4 -1.3 -0.9 -0.6 -1.3 -1.0 -1.1
6.5 6.6 6.9 6.4 5.8 5.9 5.5 6.7 6.7 6.5 4.1 2.0 2.0 3.1 4.6 5.4 5.1 4.9 4.0 3.5 3.2 3.0 2.2 1.8 1.6 1.7 1.3 1.3 1.3 1.1 0.8 0.4 -0.3 -0.5 -1.5 -1.1 -0.6 -0.9 -0.9 -1.0 -1.0 -1.0 -1.0 -0.9 -0.5 -0.5 -0.3 -0.0 -0.2
6.9 6.8 6.9 6.4 6.8 6.6 6.6 6.7 6.7 6.3 2.7 2.6 3.8 4.7 5.3 5.1 4.9 3.8 3.7 2.9 2.9 2.6 2.1 1.6 1.9 1.6 1.8 1.7 1.2 1.0 0.6 0.1 0.1 -0.1 -0.9 -1.3 -1.0 -0.9 -0.7 -0.8 -0.6 -0.5 -1.0 -0.8 -0.6 -0.7 -0.1 0.4 0.1
6.9 6.5 6.5 6.6 6.8 6.6 7.0 6.5 6.5 5.7 4.6 4.7 5.6 5.8 5.7 5.6 4.7 4.3 3.5 3.1 3.0 2.9 2.3 2.0 2.2 2.1 2.3 1.9 1.7 1.3 1.0 0.5 0.4 -0.2 -1.0 -1.0 -0.9 -0.8 -0.7 -0.4 -0.3 -0.7 -1.0 -0.5 -0.0 -0.1 0.2 1.1 1.0
6.5 6.5 6.5 6.5 6.6 6.4 6.7 6.5 6.5 5.3 5.4 7.1 7.4 7.3 5.8 5.4 5.3 4.1 3.7 3.6 3.2 3.2 3.2 3.1 3.0 2.5 2.0 1.6 1.7 1.5 0.7 0.7 0.5 0.3 -0.1 -0.6 -1.1 -1.2 -0.7 -0.1 -0.3 -1.1 -0.5 -0.1 0.3 0.6 0.8 0.9 1.0
6.5 6.5 6.5 6.5 6.6 6.5 6.5 6.5 6.6 5.5 7.1 7.0 7.0 6.7 5.7 4.5 4.1 3.9 3.7 3.8 3.7 4.0 3.4 3.0 2.7 2.8 2.3 1.7 1.6 1.4 1.0 1.3 0.9 0.7 0.5 -0.5 -0.8 -1.0 -0.2 -0.2 -0.4 -0.5 -0.2 0.1 0.6 1.1 0.5 0.8 0.7
6.5 6.5 6.5 6.5 6.5 6.5 6.5 6.5 6.5 6.6 7.1 7.1 7.2 6.6 5.7 5.2 4.6 3.9 3.7 3.9 4.0 3.6 3.2 2.9 2.8 2.6 2.6 2.2 2.2 2.1 2.0 1.6 1.2 1.5 0.8 0.3 0.0 -0.2 0.3 0.3 -0.1 0.1 0.7 0.9 0.8 0.7 1.3 0.7 0.4
6.5 6.5 6.5 6.5 6.5 6.5 6.5 6.5 6.5 6.8 7.0 6.9 7.1 7.0 6.4 5.1 4.1 3.9 3.7 3.4 3.3 2.9 3.0 3.1 2.8 2.3 3.1 3.6 4.0 4.0 3.4 2.8 2.4 1.7 1.0 0.7 0.3 0.3 0.4 0.6 0.4 0.5 1.1 0.7 0.8 1.3 1.2 1.4 0.8
6.5 6.5 6.5 6.5 6.5 6.5 6.5 6.5 6.5 6.5 6.7 7.0 7.0 7.1 6.8 5.0 4.1 3.8 3.7 3.4 3.4 3.0 3.1 2.9 3.1 3.3 4.1 4.8 4.4 4.0 3.6 2.9 2.5 1.9 1.3 0.9 0.4 0.2 0.9 0.7 1.0 0.7 1.6 1.6 1.2 1.3 2.5 2.6 1.7
6.5 6.5 6.5 6.5 6.5 6.5 6.5 6.5 6.5 6.5 6.8 6.9 7.2 7.1 6.2 4.4 4.1 4.1 4.0 3.9 3.7 3.0 2.6 3.2 3.3 3.8 3.9 3.8 4.0 3.3 2.9 2.8 2.9 2.5 2.1 0.6 0.5 0.3 0.3 0.3 0.8 1.1 1.5 1.9 1.8 1.9 2.5 3.8 3.9
6.5 6.5 6.5 6.5 6.5 6.5 6.5 6.5 6.5 6.5 6.5 6.5 6.9 6.9 6.3 6.3 5.9 4.9 4.8 4.6 3.8 2.8 2.5 3.6 3.7 3.9 3.6 3.8 4.4 4.7 5.2 4.3 3.3 2.9 2.3 1.7 0.6 0.4 0.3 0.6 0.9 1.1 1.7 2.3 2.8 2.9 3.1 3.9 4.2
6.5 6.5 6.5 6.5 6.5 6.5 6.5 6.5 6.5 6.5 6.5 6.5 6.7 7.0 6.7 7.2 6.6 6.0 5.6 5.7 4.0 2.2 3.1 3.8 4.1 4.0 3.5 4.2 4.8 5.0 4.3 3.9 3.6 3.1 2.6 1.8 1.0 0.6 0.5 0.6 1.2 2.0 2.3 2.7 3.0 3.5 3.7 3.7 4.5
6.5 6.5 6.5 6.5 6.5 6.5 6.5 6.5 6.5 6.5 6.5 6.5 6.7 6.9 6.5 6.0 6.3 5.3 5.6 5.2 3.5 3.1 3.9 4.5 4.1 3.7 4.1 4.6 4.6 4.8 4.3 3.8 3.9 3.5 3.2 2.9 2.6 1.8 1.0 1.1 1.8 2.2 2.7 3.3 3.6 3.6 4.0 4.3 4.9
6.5 6.5 6.5 6.5 6.5 6.5 6.5 6.5 6.5 6.5 6.5 6.5 6.6 7.0 6.8 6.9 5.7 5.7 5.9 4.7 3.2 3.0 4.6 4.4 4.5 4.0 4.5 4.5 4.1 3.9 3.8 3.8 3.7 3.8 3.7 3.3 3.1 2.6 2.2 2.2 2.4 2.8 3.1 3.4 3.3 3.7 3.7 4.0 4.1
6.5 6.5 6.5 6.5 6.5 6.5 6.5 6.5 6.5 6.5 6.8 7.0 6.9 7.0 5.7 6.1 6.0 6.2 6.3 5.1 3.3 3.9 4.6 4.3 4.4 4.6 4.4 3.7 3.4 3.5 3.7 3.6 3.6 3.4 3.4 3.1 2.7 2.6 2.1 2.5 2.9 3.0 3.1 3.1 2.9 3.1 3.6 4.1 4.2
6.5 6.5 6.5 6.5 6.5 6.5 6.5 6.5 6.5 6.5 6.5 6.7 6.9 6.8 6.5 5.9 5.7 6.2 6.3 4.0 3.5 4.5 4.0 4.0 4.4 4.1 3.8 3.6 3.7 3.4 3.5 3.8 3.5 2.9 2.8 2.9 2.9 2.8 2.7 3.0 3.3 3.2 3.1 2.9 3.0 3.4 3.5 4.0 3.9
6.5 6.5 6.5 6.5 6.5 6.5 6.5 6.5 6.5 6.5 6.5 6.5 6.5 6.8 6.0 5.3 5.2 5.9 4.5 3.8 4.0 4.4 3.7 3.8 4.2 4.1 3.6 3.9 4.2 4.2 3.7 3.5 3.2 2.9 2.7 2.8 2.8 2.8 3.1 3.0 3.0 3.0 3.0 3.1 3.3 3.5 3.3 4.0 4.1
6.5 6.5 6.5 6.5 6.5 6.5 6.5 6.5 6.5 6.5 6.5 6.5 6.6 4.5 4.6 3.7 4.4 4.5 1.3 2.0 3.0 3.4 3.3 3.2 3.4 3.3 3.9 4.1 4.2 4.2 4.0 3.5 3.4 3.2 3.1 3.0 2.7 2.9 3.1 2.8 3.2 3.4 3.3 3.3 3.7 3.5 3.4 3.7 4.2
6.5 6.5 6.5 6.5 6.5 6.5 6.5 6.5 6.5 6.5 6.5 6.7 6.3 3.9 2.2 3.0 2.7 2.5 2.4 1.0 0.8 0.9 2.2 2.6 3.1 3.6 3.7 3.7 4.1 4.0 4.2 4.0 3.8 3.6 3.2 2.7 3.2 2.6 2.5 2.9 3.2 3.3 3.2 3.3 3.5 3.7 3.8 3.9 3.9
Wind_Speed
5 2 2 2 2 0 0 0 2 2 3 3 5 2 9 5 2 1 3 4 5 5 5 6 8 9 11 13 13 13 11 9 9 9 8 8 7 6 6 7 6 5 5 4 4 3 4 5 5
2 1 2 2 1 1 1 1 4 1 4 9 6 4 4 4 3 6 5 3 6 7 6 6 10 12 14 16 14 12 11 10 11 9 11 9 8 8 8 10 8 7 5 4 3 3 4 3 3
3 2 0 3 2 2 1 2 3 7 3 4 4 6 3 6 6 6 8 8 10 9 9 9 13 12 14 16 15 14 14 13 13 11 10 12 15 16 15 13 13 12 10 10 8 7 6 5 3
2 1 3 1 2 2 2 2 8 8 4 4 3 6 4 2 4 7 11 11 10 8 10 12 18 14 15 17 16 16 16 16 16 15 14 16 16 14 15 14 13 11 13 14 13 13 11 8 8
3 2 2 0 2 3 2 2 8 4 4 4 1 5 4 2 9 13 12 10 9 8 9 13 20 14 16 19 18 17 17 15 16 15 15 15 15 14 15 15 15 15 14 14 14 14 15 14 10
2 1 1 2 2 3 2 3 4 2 4 5 4 7 4 10 12 11 11 10 9 8 10 13 17 17 18 19 18 17 17 16 16 16 16 16 16 17 17 16 16 15 14 13 13 13 13 14 15
4 2 1 1 2 3 1 2 3 2 3 3 7 6 5 10 10 11 11 10 9 9 11 13 13 16 18 19 18 17 17 16 16 15 15 15 17 17 16 16 16 15 15 15 15 14 13 11 11
3 3 2 2 1 0 1 3 2 3 2 1 2 3 4 13 13 12 11 10 9 9 11 12 12 12 14 15 18 18 18 18 18 17 15 14 16 16 16 13 15 13 14 14 14 15 15 13 12
2 2 2 2 2 2 4 3 2 2 4 1 1 2 2 20 16 13 11 10 9 9 9 10 10 11 12 13 14 15 17 17 15 14 15 13 12 12 13 15 14 15 14 15 14 14 14 13 10
2 2 4 1 2 3 1 2 7 4 4 5 2 7 15 18 16 13 11 9 9 8 8 7 9 10 12 12 12 13 15 16 14 13 12 13 12 13 12 13 14 14 15 13 13 13 12 11 9
0 3 5 4 2 1 2 2 2 5 6 6 6 12 16 17 14 13 10 9 9 8 7 7 9 9 11 10 10 11 11 11 12 15 13 13 11 11 11 10 12 12 14 11 12 12 12 12 9
5 2 3 1 2 0 3 5 2 6 3 3 6 17 17 17 14 12 11 10 10 9 8 8 9 10 11 10 10 11 10 11 12 14 13 11 10 11 11 11 11 12 13 13 13 11 10 10 10
2 4 4 5 8 4 5 6 5 9 4 6 14 18 18 16 14 10 11 9 9 10 8 8 9 9 10 11 10 11 11 12 12 13 15 12 11 9 9 9 10 10 11 11 10 10 10 10 9
4 6 10 7 5 3 6 2 1 4 6 10 14 16 16 16 15 12 11 11 9 10 9 8 9 10 11 11 11 11 11 12 13 13 13 14 12 10 9 9 10 10 11 11 10 11 9 7 9
4 6 7 1 2 2 8 5 8 0 8 12 14 13 13 14 14 13 12 11 11 9 10 9 9 11 11 11 11 10 11 12 13 12 14 14 13 11 9 9 9 11 11 12 11 11 10 8 9
3 1 2 2 3 3 4 5 1 5 12 10 9 10 11 11 12 11 11 11 9 10 9 8 7 9 10 11 11 11 11 12 11 11 12 12 12 11 10 8 9 11 10 11 9 7 8 7 8
1 4 3 5 2 1 3 5 4 5 10 12 11 11 10 10 9 10 11 10 9 9 10 9 9 10 11 12 12 12 12 11 10 10 10 12 13 12 10 10 10 10 9 10 8 7 8 8 9
3 4 3 6 1 3 3 11 9 3 11 13 13 12 13 13 14 13 12 10 9 9 9 9 8 11 10 11 10 10 10 10 10 10 11 12 13 14 11 10 11 11 8 7 8 8 8 9 9
2 4 10 7 8 5 9 9 10 5 7 11 13 14 15 15 11 12 12 11 9 8 10 9 10 10 8 7 5 4 5 5 6 10 11 12 13 13 13 10 10 10 8 8 10 8 9 8 11
6 10 12 10 9 7 9 12 11 8 7 15 16 16 17 13 13 13 13 11 11 10 9 9 8 10 7 5 5 4 5 6 7 9 11 12 12 13 12 11 9 11 6 9 10 11 7 6 10
11 9 11 12 8 5 6 14 9 5 5 2 10 14 14 18 18 16 15 13 9 9 9 8 7 8 6 7 7 8 9 6 4 4 5 10 11 12 12 12 10 9 9 7 8 10 11 7 7
16 12 14 12 6 9 1 9 4 4 5 3 7 10 14 16 15 15 16 13 11 8 7 8 7 7 7 9 8 8 4 5 3 4 5 7 11 12 12 11 10 10 9 9 8 8 8 8 7
5 5 8 6 7 2 5 7 2 2 7 4 3 2 9 12 15 17 17 15 11 9 9 8 8 7 7 6 6 5 7 6 5 4 4 6 9 11 11 10 10 10 10 10 9 9 9 7 6
1 1 4 3 1 7 11 11 9 3 2 4 1 3 6 12 14 15 16 13 11 10 9 9 9 8 7 7 7 8 9 7 5 4 4 4 4 7 10 9 9 10 10 9 8 8 9 8 7
8 4 4 4 4 7 2 7 12 3 3 1 4 2 5 10 13 15 17 14 12 12 10 9 9 9 8 9 9 9 8 7 6 5 3 4 4 5 6 8 9 9 9 9 9 7 8 8 7
7 15 7 5 4 2 1 5 1 2 1 1 1 3 7 9 11 15 17 14 13 13 12 11 10 10 9 9 9 8 8 5 5 5 4 4 5 5 7 8 9 10 10 10 10 9 7 8 7
2 8 13 13 12 9 10 9 7 3 6 4 3 5 9 10 12 15 15 14 15 13 12 12 11 10 9 9 8 8 7 6 6 7 6 4 5 6 7 8 9 10 11 12 11 7 8 7 8
6 3 2 3 5 10 6 5 7 4 6 7 7 10 9 10 12 14 13 14 14 13 11 11 11 12 10 10 8 7 7 7 7 7 7 6 6 7 7 8 9 10 11 11 10 7 9 9 7
2 3 1 3 3 2 3 4 3 3 6 7 8 7 9 12 13 12 8 9 13 12 12 11 11 12 11 10 9 8 8 8 7 7 6 6 7 6 7 8 8 8 9 10 9 9 9 8 8
2 1 1 3 7 4 1 8 3 3 5 4 5 6 7 11 11 13 14 11 10 10 11 12 11 11 11 10 10 10 9 8 8 7 7 7 6 7 8 7 8 8 9 9 9 9 8 9 9
Wind_Direction
320 9 130 84 225 320 8 230 258 201 177 338 116 148 153 53 145 151 122 67 90 83 66 56 75 80 78 69 61 58 58 75 102 120 123 123 122 114 108 95 77 60 54 55 55 57 65 68 64
332 198 86 99 231 192 136 275 254 169 123 118 77 84 77 99 97 120 135 107 100 90 79 69 75 71 78 74 69 68 67 57 47 47 54 68 79 78 68 61 51 36 29 15 3 5 22 55 59
131 26 235 87 123 178 235 351 155 118 139 165 111 39 74 112 115 120 111 127 110 89 85 77 79 76 84 80 72 69 71 77 76 72 57 46 53 55 55 54 54 44 29 9 357 350 348 349 349
67 58 83 222 205 203 242 338 155 143 112 81 113 87 96 6 134 133 134 125 105 87 78 67 79 77 82 78 72 68 68 73 75 76 74 69 68 65 60 57 58 51 46 39 31 15 359 341 337
49 70 64 318 279 268 272 259 169 139 109 105 144 133 93 71 121 128 127 116 104 79 71 75 72 82 79 73 69 67 68 71 74 74 74 74 76 74 71 68 63 55 48 44 40 34 25 13 353
74 83 132 232 259 293 280 186 189 131 133 150 109 132 115 140 136 130 119 105 94 98 85 84 84 87 79 77 74 71 72 70 71 71 71 69 67 61 54 50 50 47 46 44 42 40 34 26 22
107 102 199 216 293 314 320 73 238 109 115 170 138 133 124 163 135 124 109 94 84 85 88 91 98 96 88 82 78 75 71 70 70 71 70 70 69 64 55 47 41 37 35 30 28 27 27 25 21
105 98 143 218 272 141 135 104 46 37 162 87 352 178 174 172 139 118 106 96 81 67 67 78 76 81 83 79 75 71 68 64 62 61 64 66 63 56 54 47 42 39 35 26 22 19 15 14 15
141 96 207 186 179 336 162 147 92 100 139 226 217 324 101 140 135 127 121 107 90 73 69 73 77 77 82 77 73 72 71 70 68 63 57 58 55 50 48 43 38 36 29 26 23 18 16 11 12
98 149 196 241 313 315 79 197 156 167 162 229 221 83 135 141 147 145 143 126 108 95 83 81 84 89 88 82 74 67 61 59 58 61 61 59 55 50 48 42 36 31 22 21 15 16 15 19 10
201 190 185 172 181 265 347 114 148 170 211 228 215 163 156 153 154 148 133 118 110 106 95 90 95 96 99 93 86 74 70 66 55 46 45 53 56 46 42 34 24 16 13 13 5 8 11 9 10
301 230 200 210 119 133 181 138 194 211 211 258 222 160 159 161 157 151 139 132 132 119 103 99 98 100 93 90 80 81 75 70 65 53 44 46 46 43 40 33 24 21 12 4 0 357 360 3 4
251 340 307 293 299 251 139 204 211 227 231 115 140 157 165 161 155 141 130 123 122 111 101 93 98 101 103 94 91 81 75 70 67 61 51 48 47 45 40 38 33 25 11 6 358 352 352 354 2
314 290 286 284 270 235 207 197 245 240 147 146 160 166 166 162 155 138 144 137 131 125 117 117 111 120 115 106 98 90 84 79 68 57 51 50 50 42 37 37 31 22 12 1 355 350 347 350 351
296 307 320 359 312 228 176 229 232 26 172 168 175 169 161 160 156 159 154 146 143 131 128 124 125 131 118 109 101 93 88 76 68 62 52 50 47 43 41 38 31 20 10 0 356 356 353 353 355
306 335 285 178 317 331 249 263 77 198 175 182 179 165 161 162 165 156 153 144 142 136 134 134 132 128 117 113 105 95 87 82 75 67 61 54 51 46 47 41 31 19 13 8 1 359 353 357 356
54 258 240 304 14 77 227 255 184 181 184 183 184 176 169 158 160 160 159 151 149 140 135 128 133 134 127 117 107 100 93 82 73 63 55 52 48 42 42 38 29 20 23 19 5 2 1 355 352
230 230 234 250 231 335 258 256 276 225 198 197 191 182 179 179 177 165 158 152 145 137 135 135 137 138 132 123 115 103 93 81 70 59 53 49 46 40 35 37 29 22 23 21 12 5 3 3 351
191 243 259 262 262 280 257 246 256 226 207 197 199 193 190 186 170 163 156 149 146 145 147 147 143 148 146 137 127 109 94 89 76 66 53 49 45 39 32 32 32 27 27 22 15 360 8 11 2
259 277 277 284 271 215 265 251 253 204 221 213 201 196 190 172 167 165 160 162 167 160 153 150 153 159 161 143 114 109 110 86 79 69 55 46 48 45 41 34 30 28 26 24 24 19 6 17 20
249 249 257 266 304 264 278 269 239 218 232 187 200 200 191 185 176 173 171 172 168 164 157 144 144 163 170 139 123 118 119 121 106 82 70 53 50 48 43 40 35 39 36 29 30 23 19 14 22
274 226 243 249 256 271 316 288 246 224 213 191 183 192 198 193 181 173 169 170 177 161 137 134 137 142 147 154 153 163 155 135 105 86 65 59 50 47 44 40 41 44 46 37 31 32 34 22 21
256 301 255 236 227 277 237 269 272 246 217 169 121 215 199 190 182 175 172 175 168 151 147 138 135 136 148 159 157 140 117 111 115 109 90 68 62 53 48 47 47 45 46 41 40 35 38 41 42
69 52 34 42 57 255 233 227 277 244 259 150 143 14 180 172 169 168 170 165 157 152 146 149 143 127 123 127 127 123 126 132 135 116 74 59 54 52 47 50 49 49 46 37 42 45 44 49 53
260 282 279 241 204 257 350 226 266 225 198 290 313 296 161 166 166 170 174 172 162 157 153 150 145 129 136 130 124 125 127 124 110 103 92 78 61 52 47 51 49 48 50 46 45 48 51 49 51
240 226 231 249 232 313 195 231 241 228 185 208 310 152 161 174 178 181 181 175 165 160 160 155 148 146 143 130 121 119 121 113 108 110 111 84 72 63 61 63 61 60 58 54 57 57 57 52 50
163 217 244 254 262 272 261 266 267 217 254 232 205 184 194 189 187 185 178 176 168 165 164 160 156 149 143 137 134 126 119 119 118 113 95 79 93 94 80 74 70 67 61 56 60 59 58 57 50
215 155 158 188 244 248 245 254 243 245 256 230 230 217 208 200 196 192 183 175 170 167 159 160 159 155 150 144 140 138 131 126 122 112 96 100 100 100 98 86 77 71 66 61 62 62 56 56 51
207 202 159 122 47 237 293 260 231 302 322 265 254 220 207 201 199 188 161 164 167 165 163 161 161 152 153 152 144 140 139 130 126 116 105 108 118 114 102 86 79 70 65 60 62 63 58 58 52
338 24 4 261 228 178 147 268 233 283 292 286 270 230 209 202 195 184 173 164 163 159 165 166 162 163 160 153 152 149 144 140 134 125 113 128 129 113 93 92 85 76 65 58 59 60 54 52 47